#timestamp,LO_Frequency,Hit,StdDev 
1604390415.7,286046998.4,N
1604390435.6,286046998.5,N
1604390455.4,286046998.7,N
1604390475.2,286046999.3,N
1604390495.1,286046999.0,N
1604390496.0,286046999.0,N
1604390515.8,286046996.9,Y
1604390535.7,286046999.0,P
1604390555.5,286046999.5,P
1604390575.3,286047000.5,N
1604390595.2,286047000.9,N
1604390615.0,286047001.1,N
1604390615.9,286047001.1,N
1604390635.7,286047000.8,N
1604390655.6,286047001.2,N
1604390675.4,286047000.5,N
1604390695.3,286047000.0,N
1604390715.1,286047000.5,N
1604390735.8,286047002.8,Y
1604390755.7,286046999.9,P
1604390775.5,286046999.9,N
1604390795.4,286047001.0,P
1604390815.2,286047000.7,N
1604390835.0,286047001.0,N
1604390835.9,286047001.0,N
1604390855.8,286047000.9,N
1604390875.6,286047000.6,N
1604390895.5,286047001.6,Y
1604390915.3,286047005.0,P
1604390935.1,286047006.4,N
1604390955.9,286047007.4,N
1604390975.7,286047007.0,N
1604390995.5,286047007.4,N
1604391015.4,286047007.2,N
1604391035.2,286047005.2,N
1604391055.1,286047005.6,N
1604391056.0,286047005.6,N
1604391075.8,286047006.0,Y
1604391095.6,286046997.8,P
1604391115.5,286046997.6,N
1604391135.3,286046995.2,N
1604391155.1,286046996.2,N
1604391175.9,286046995.2,N
1604391195.7,286046998.0,N
1604391215.6,286046997.0,N
1604391235.4,286046995.6,N
1604391255.2,286046995.2,N
1604391275.1,286046997.4,N
1604391276.0,286046997.4,N
1604391295.8,286046999.0,N
1604391315.7,286046996.6,N
1604391335.5,286046996.8,N
1604391355.3,286046998.5,N
1604391375.2,286046998.7,N
1604391395.0,286046998.1,N
1604391395.9,286046998.1,N
1604391415.7,286046999.4,N
1604391435.6,286046997.8,N
1604391455.4,286046995.3,N
1604391475.3,286046995.5,N
1604391495.1,286046996.2,N
1604391496.0,286046996.2,N
1604391515.8,286046996.1,N
1604391535.7,286046993.6,Y
1604391555.5,286046995.1,P
1604391575.4,286046996.4,P
1604391595.2,286046995.2,P
1604391615.0,286046997.3,N
1604391615.9,286046997.3,N
1604391635.8,286046997.2,N
1604391655.6,286046995.0,Y
1604391675.4,286046999.8,P
1604391695.3,286047000.0,N
1604391715.1,286047000.7,N
1604391735.9,286047000.1,N
1604391755.7,286047002.5,N
1604391775.5,286047001.5,N
1604391795.4,286047004.3,N
1604391815.2,286047002.1,N
1604391835.1,286047000.1,N
1604391836.0,286047000.1,N
1604391855.8,286047004.4,N
1604391875.6,286047004.0,N
1604391895.5,286047003.1,N
1604391915.3,286047004.2,N
1604391935.1,286047003.7,N
1604391955.9,286047004.4,N
1604391975.7,286047001.5,N
1604391995.6,286047001.6,N
1604392015.4,286047002.3,N
1604392035.2,286046999.8,N
1604392055.1,286047002.4,N
1604392056.0,286047002.4,N
1604392075.8,286047000.6,N
1604392095.6,286047000.3,N
1604392115.5,286047002.2,N
1604392135.3,286047001.3,N
1604392155.2,286047004.3,N
1604392175.9,286047006.0,Y
1604392195.7,286047002.2,P
1604392215.6,286047001.6,P
1604392235.4,286047001.4,P
1604392255.3,286047003.7,Y
1604392275.1,286047001.8,P
1604392276.0,286047001.8,P
1604392295.8,286047002.4,P
1604392315.7,286047002.5,Y
1604392335.5,286047000.4,P
1604392355.3,286047000.9,N
1604392375.2,286047001.0,N
1604392395.0,286046999.7,N
1604392395.9,286046999.7,N
1604392415.8,286047000.9,N
1604392435.6,286047000.6,N
1604392455.4,286046998.4,N
1604392475.3,286046999.3,N
1604392495.1,286046999.1,N
1604392515.9,286046997.0,Y
1604392535.7,286046996.9,P
1604392555.5,286046998.8,N
1604392575.4,286046999.8,N
1604392595.2,286047001.0,N
1604392615.0,286046998.3,N
1604392615.9,286046998.3,N
1604392635.8,286047000.7,N
1604392655.6,286047000.6,N
1604392675.5,286046998.5,N
1604392695.3,286046999.2,N
1604392715.1,286046998.1,N
1604392735.9,286046998.3,N
1604392755.7,286046999.3,N
1604392775.5,286046999.4,N
1604392795.4,286046997.0,N
1604392815.2,286046998.5,N
1604392835.1,286046998.5,N
1604392836.0,286046998.5,N
1604392855.8,286047001.2,N
1604392875.6,286047000.3,N
1604392895.5,286046999.7,N
1604392915.3,286046999.7,N
1604392935.2,286046999.7,N
1604392955.9,286047000.2,N
1604392975.7,286047002.5,N
1604392995.6,286047002.6,N
1604393015.4,286047001.6,N
1604393035.2,286047004.4,Y
1604393055.1,286047004.7,P
1604393056.0,286047004.7,N
1604393075.8,286047007.0,N
1604393095.7,286047006.7,N
1604393115.5,286047006.1,N
1604393135.3,286047006.3,N
1604393155.2,286047007.3,Y
1604393175.0,286047002.7,P
1604393175.9,286047002.7,N
1604393195.8,286047001.9,N
1604393215.6,286047002.5,N
1604393235.4,286047000.3,N
1604393255.3,286046999.9,N
1604393275.1,286047000.0,N
1604393295.8,286047000.5,N
1604393315.7,286046998.7,N
1604393335.5,286046998.1,N
1604393355.4,286046998.1,N
1604393375.2,286047000.9,N
1604393395.0,286046998.9,N
1604393395.9,286046998.9,N
1604393415.8,286046998.3,N
1604393435.6,286046996.7,N
1604393455.5,286046999.6,N
1604393475.3,286046999.6,N
1604393495.1,286046999.6,N
1604393515.9,286046999.0,N
1604393535.7,286046998.4,N
1604393555.5,286046999.3,N
1604393575.4,286046996.7,N
1604393595.2,286046998.0,N
1604393615.1,286046998.0,N
1604393616.0,286046998.0,N
1604393635.8,286046995.4,N
1604393655.6,286046994.9,N
1604393675.5,286046995.2,N
1604393695.3,286046998.0,N
1604393715.1,286046997.3,N
1604393735.9,286046998.7,N
1604393755.7,286047000.2,N
1604393775.6,286047000.6,N
1604393795.4,286047000.1,N
1604393815.2,286047000.8,N
1604393865.1,286047001.2,E
1604393875.0,286047001.2,N
1604393875.9,286047001.2,P
1604393895.8,286046998.8,P
1604393915.6,286046999.3,N
1604393935.5,286046996.2,Y
1604393955.3,286046995.2,P
1604393975.1,286046995.3,N
1604393995.9,286046997.6,N
